Regional Weather Roundup
Issued by NWS Raleigh/Durham, NC

Home | Current Version | Previous Version | Text Only | Print | Product List | Glossary On
Versions: 1 2 3 4 5 6 7 8 9 10 11 12 13 14 15 16 17 18 19 20 21 22 23 24 25 26 27 28 29 30 31 32 33 34 35 36 37 38 39 40 41 42 43 44 45 46 47 48 49 50
000
ASUS42 KRAH 080510
RWRRAH
NORTH CAROLINA WEATHER ROUNDUP
NATIONAL WEATHER SERVICE RALEIGH NC
100 AM EDT WED JUL 08 2015

NOTE: "FAIR" INDICATES FEW OR NO CLOUDS BELOW 12,000 FEET WITH NO
SIGNIFICANT WEATHER AND/OR OBSTRUCTIONS TO VISIBILITY.

NCZ001-053-055-056-065-067-080600-
WESTERN NORTH CAROLINA

CITY           SKY/WX    TMP DP  RH WIND       PRES   REMARKS
ASHEVILLE      PTCLDY    70  65  84 NW3       30.21F
JEFFERSON      MOCLDY    70  57  61 W3        30.24S
MORGANTON      PTCLDY    73  68  86 W3        30.18S
HICKORY        PTCLDY    75  67  76 CALM      30.13S
RUTHERFORDTON  PTCLDY    73  68  86 CALM      30.14F
MOUNT AIRY     MOCLDY    73  70  91 CALM      30.14S
BOONE          MOCLDY    65  64  95 CALM      30.25S
$$

NCZ021-022-025-041-071-084-088-080600-
CENTRAL NORTH CAROLINA

CITY           SKY/WX    TMP DP  RH WIND       PRES   REMARKS
CHARLOTTE      CLOUDY    78  67  68 S5        30.13S
GREENSBORO     MOCLDY    78  70  76 S9        30.10S
WINSTON-SALEM  MOCLDY    80  66  62 S3        30.12S
RALEIGH-DURHAM MOCLDY    79  72  79 SW8       30.11S
FORT BRAGG     PTCLDY    79  70  75 SW6       30.11S
FAYETTEVILLE   PTCLDY    77  71  82 S8        30.12S
BURLINGTON     PTCLDY    78  71  79 S6        30.10S
LAURINBURG     MOCLDY    76  70  82 SW7       30.13S HAZE
$$

NCZ011-015-027-028-043-044-047-080-103-080600-
NORTHEASTERN NORTH CAROLINA

CITY           SKY/WX    TMP DP  RH WIND       PRES   REMARKS
ROCKY MT-WILSO CLEAR     78  73  84 S8        30.11S
GREENVILLE     CLEAR     79  73  83 S7        30.12F
WASHINGTON     CLEAR     76  73  87 SW6       30.12F
ELIZABETH CITY CLEAR     79  74  84 SW10      30.10S
MANTEO         CLEAR     78  73  86 SW13      30.12S
CAPE HATTERAS  CLEAR     77  75  93 SW13      30.14F
$$

NCZ078-087-090-091-093-098-101-080600-
SOUTHEASTERN NORTH CAROLINA

CITY           SKY/WX    TMP DP  RH WIND       PRES   REMARKS
LUMBERTON      PTCLDY    77  71  82 S5        30.12F
GOLDSBORO      PTCLDY    77  73  87 VRB2      30.10S
KINSTON        PTCLDY    77  73  85 S6        30.13S
KENANSVILLE    CLEAR     75  72  89 CALM      30.14S
NEW BERN       CLEAR     77  73  87 SW5       30.14F
CHERRY POINT   CLEAR     78  74  87 SW7       30.15S
BEAUFORT       CLEAR     80  76  87 SW13      30.15S
JACKSONVILLE   CLEAR     76  72  87 S5        30.13F
WILMINGTON     CLEAR     79  74  84 SW9       30.14F
$$




USA.gov is the U.S. government's official web portal to all federal, state and local government web resources and services.